| time (UTC) | temp C | wind direction | speed KPH | gust KPH | rain 1hr cm | rain 24hr cm | rain mn cm | humidity % | barometer mb |
| 20260504041544 | 12 | 193 | 1.6 | 6.4 | 0.00 | 0.00 | 0.00 | 58 | 1016.6 |
| 20260504040045 | 12 | 227 | 0.0 | 6.4 | 0.00 | 0.00 | 0.00 | 57 | 1016.7 |
| 20260504034542 | 12 | 219 | 0.0 | 8.0 | 0.00 | 0.00 | 0.00 | 57 | 1016.7 |
| 20260504033049 | 12 | 189 | 0.0 | 8.0 | 0.00 | 0.00 | 0.00 | 56 | 1016.6 |
| 20260504031541 | 12 | 243 | 0.0 | 6.4 | 0.00 | 0.00 | 0.00 | 54 | 1016.7 |
| 20260504030039 | 12 | 145 | 0.0 | 3.2 | 0.00 | 0.00 | 0.00 | 54 | 1016.7 |
| 20260504024553 | 12 | 146 | 0.0 | 3.2 | 0.00 | 0.00 | 0.00 | 52 | 1016.6 |
| 20260504023038 | 13 | 143 | 0.0 | 3.2 | 0.00 | 0.00 | 0.00 | 50 | 1016.3 |
| 20260504021547 | 13 | 218 | 0.0 | 3.2 | 0.00 | 0.00 | 0.00 | 50 | 1016.3 |
| 20260504020041 | 13 | 153 | 0.0 | 3.2 | 0.00 | 0.00 | 0.00 | 47 | 1016.2 |
| 20260504014537 | 13 | 134 | 1.6 | 3.2 | 0.00 | 0.00 | 0.00 | 47 | 1016.3 |
| 20260504013044 | 13 | 132 | 0.0 | 4.8 | 0.00 | 0.00 | 0.00 | 47 | 1016.1 |
| 20260504011537 | 14 | 76 | 0.0 | 3.2 | 0.00 | 0.00 | 0.00 | 47 | 1016.1 |
| 20260504010035 | 15 | 143 | 0.0 | 3.2 | 0.00 | 0.00 | 0.00 | 44 | 1015.9 |
| 20260504004543 | 15 | 161 | 0.0 | 3.2 | 0.00 | 0.00 | 0.00 | 42 | 1015.9 |
| 20260504003033 | 16 | 145 | 0.0 | 3.2 | 0.00 | 0.00 | 0.00 | 39 | 1015.8 |
| 20260504001533 | 17 | 226 | 1.6 | 3.2 | 0.00 | 0.00 | 0.00 | 35 | 1015.8 |
| 20260504000032 | 17 | 136 | 0.0 | 4.8 | 0.00 | 0.00 | 0.00 | 38 | 1015.8 |
| 20260503234532 | 17 | 191 | 0.0 | 4.8 | 0.00 | 0.00 | 0.00 | 34 | 1015.9 |
| 20260503233033 | 17 | 68 | 0.0 | 4.8 | 0.00 | 0.00 | 0.00 | 35 | 1015.9 |
| 20260503231529 | 18 | 48 | 0.0 | 6.4 | 0.00 | 0.00 | 0.00 | 39 | 1016.0 |
| 20260503230028 | 18 | 61 | 0.0 | 4.8 | 0.00 | 0.00 | 0.00 | 40 | 1016.0 |
| 20260503224528 | 18 | 60 | 0.0 | 6.4 | 0.00 | 0.00 | 0.00 | 37 | 1016.1 |
| 20260503223027 | 18 | 26 | 0.0 | 9.7 | 0.00 | 0.00 | 0.00 | 42 | 1016.1 |
| 20260503221526 | 18 | 218 | 0.0 | 9.7 | 0.00 | 0.00 | 0.00 | 43 | 1016.2 |
| 20260503220027 | 18 | 238 | 1.6 | 6.4 | 0.00 | 0.00 | 0.00 | 41 | 1016.3 |
| 20260503214524 | 18 | 249 | 0.0 | 6.4 | 0.00 | 0.00 | 0.00 | 43 | 1016.3 |
| 20260503213026 | 19 | 116 | 0.0 | 4.8 | 0.00 | 0.00 | 0.00 | 41 | 1016.5 |
| 20260503211534 | 18 | 43 | 1.6 | 6.4 | 0.00 | 0.00 | 0.00 | 46 | 1016.6 |
| 20260503210021 | 17 | 251 | 1.6 | 9.7 | 0.00 | 0.00 | 0.00 | 49 | 1016.8 |
| 20260503204521 | 18 | 171 | 0.0 | 6.4 | 0.00 | 0.00 | 0.00 | 42 | 1017.0 |
| 20260503203021 | 17 | 105 | 3.2 | 14.5 | 0.00 | 0.00 | 0.00 | 47 | 1017.2 |
| 20260503201518 | 17 | 228 | 0.0 | 6.4 | 0.00 | 0.00 | 0.00 | 44 | 1017.4 |
| 20260503200017 | 17 | 349 | 0.0 | 4.8 | 0.00 | 0.00 | 0.00 | 47 | 1017.7 |
| 20260503194615 | 17 | 347 | 0.0 | 6.4 | 0.00 | 0.00 | 0.00 | 49 | 1017.9 |
| 20260503193030 | 17 | 82 | 0.0 | 9.7 | 0.00 | 0.00 | 0.00 | 45 | 1018.2 |
| 20260503191514 | 16 | 139 | 0.0 | 9.7 | 0.00 | 0.00 | 0.00 | 45 | 1018.3 |
| 20260503190023 | 17 | 38 | 0.0 | 8.0 | 0.00 | 0.00 | 0.00 | 46 | 1018.5 |
| 20260503184511 | 16 | 305 | 1.6 | 6.4 | 0.00 | 0.00 | 0.00 | 48 | 1018.7 |
| 20260503183008 | 15 | 239 | 1.6 | 8.0 | 0.00 | 0.00 | 0.00 | 46 | 1018.8 |
| 20260503181507 | 16 | 317 | 0.0 | 6.4 | 0.00 | 0.00 | 0.00 | 46 | 1018.9 |
| 20260503180006 | 15 | 112 | 0.0 | 4.8 | 0.00 | 0.00 | 0.00 | 54 | 1019.0 |
| 20260503174505 | 15 | 226 | 0.0 | 6.4 | 0.00 | 0.00 | 0.00 | 51 | 1019.2 |
| 20260503173005 | 15 | 223 | 0.0 | 8.0 | 0.00 | 0.00 | 0.00 | 56 | 1019.4 |
| 20260503171502 | 14 | 221 | 0.0 | 3.2 | 0.00 | 0.00 | 0.00 | 55 | 1019.6 |
| 20260503100126 | 5 | 226 | 0.0 | 4.8 | 0.00 | 0.00 | 0.00 | 85 | 1018.4 |
| 20260503081550 | 6 | 347 | 1.6 | 4.8 | 0.00 | 0.00 | 0.00 | 84 | 1017.8 |
| 20260503071544 | 6 | 282 | 0.0 | 3.2 | 0.00 | 0.00 | 0.00 | 85 | 1017.4 |
| 20260503054535 | 7 | 228 | 0.0 | 3.2 | 0.00 | 0.00 | 0.00 | 83 | 1017.0 |
| 20260503053032 | 7 | 266 | 0.0 | 3.2 | 0.00 | 0.00 | 0.00 | 82 | 1017.0 |
| 20260503051525 | 7 | 354 | 0.0 | 4.8 | 0.00 | 0.00 | 0.00 | 80 | 1016.9 |
| 20260503050024 | 8 | 351 | 0.0 | 9.7 | 0.00 | 0.00 | 0.00 | 79 | 1016.9 |
| 20260503044520 | 8 | 11 | 0.0 | 8.0 | 0.00 | 0.00 | 0.00 | 77 | 1016.7 |
| 20260503043016 | 8 | 14 | 0.0 | 3.2 | 0.00 | 0.00 | 0.00 | 75 | 1016.7 |